• In India
  • List of Countries
  • For 7 days
  • Water Temperature
  • Satellite Maps
  • Weather Map
  • Weather Widgets
  • user-avatar
    Login

    Hourly Weather Dziwigorz

    Today, 16 July, Monday

    Time Temperature Precipitation Wind Pressure Humidity
    00:00 +18°C° 0 mm 1 mps 745 mmHg 74%
    01:00 +16°C° 0 mm 2 mps 745 mmHg 72%
    02:00 +16°C° 0 mm 1 mps 745 mmHg 74%
    03:00 +16°C° 0 mm 1 mps 745 mmHg 76%
    04:00 +15°C° 0 mm 1 mps 745 mmHg 77%
    05:00 +18°C° 0 mm 1 mps 745 mmHg 74%
    06:00 +20°C° 0 mm 1 mps 745 mmHg 71%
    07:00 +21°C° 0 mm 1 mps 745 mmHg 68%
    08:00 +23°C° 0 mm 2 mps 745 mmHg 63%
    09:00 +24°C° 0 mm 2 mps 745 mmHg 59%
    10:00 +26°C° 0 mm 3 mps 744 mmHg 54%
    11:00 +27°C° 0 mm 3 mps 744 mmHg 51%
    12:00 +27°C° 0 mm 3 mps 744 mmHg 48%
    13:00 +28°C° 0 mm 3 mps 744 mmHg 45%
    14:00 +28°C° 0.1 mm 3 mps 743 mmHg 46%
    15:00 +28°C° 0.1 mm 3 mps 743 mmHg 47%
    16:00 +28°C° 0.1 mm 3 mps 743 mmHg 47%
    17:00 +27°C° 0 mm 2 mps 742 mmHg 53%
    18:00 +25°C° 0 mm 2 mps 742 mmHg 59%
    19:00 +24°C° 0 mm 1 mps 742 mmHg 65%
    20:00 +23°C° 0.3 mm 1 mps 742 mmHg 69%
    21:00 +21°C° 0.3 mm 1 mps 742 mmHg 73%
    22:00 +20°C° 0.3 mm 1 mps 742 mmHg 77%
    23:00 +18°C° 0.3 mm 2 mps 742 mmHg 80%

    Tomorrow, 17 July, Tuesday

    Time Temperature Precipitation Wind Pressure Humidity
    00:00 +18°C° 0.3 mm 2 mps 742 mmHg 84%
    01:00 +17°C° 0.3 mm 2 mps 742 mmHg 87%
    02:00 +17°C° 0 mm 2 mps 742 mmHg 89%
    03:00 +17°C° 0 mm 2 mps 742 mmHg 90%
    04:00 +17°C° 0 mm 2 mps 741 mmHg 92%
    05:00 +18°C° 0 mm 3 mps 741 mmHg 89%
    06:00 +19°C° 0 mm 4 mps 741 mmHg 87%
    07:00 +20°C° 0 mm 4 mps 741 mmHg 84%
    08:00 +20°C° 0.5 mm 5 mps 741 mmHg 83%
    09:00 +20°C° 0.5 mm 5 mps 742 mmHg 82%
    10:00 +20°C° 0.5 mm 6 mps 742 mmHg 81%
    11:00 +20°C° 0.6 mm 6 mps 741 mmHg 82%
    12:00 +20°C° 0.6 mm 6 mps 741 mmHg 82%
    13:00 +20°C° 0.6 mm 7 mps 741 mmHg 83%
    14:00 +20°C° 0.2 mm 7 mps 741 mmHg 83%
    15:00 +20°C° 0.2 mm 7 mps 741 mmHg 82%
    16:00 +20°C° 0.2 mm 7 mps 741 mmHg 82%
    17:00 +19°C° 0.1 mm 6 mps 741 mmHg 83%
    18:00 +19°C° 0.1 mm 5 mps 741 mmHg 85%
    19:00 +17°C° 0.1 mm 5 mps 741 mmHg 86%
    20:00 +17°C° 0 mm 5 mps 742 mmHg 88%
    21:00 +17°C° 0 mm 4 mps 742 mmHg 90%
    22:00 +17°C° 0 mm 4 mps 742 mmHg 92%
    23:00 +17°C° 0 mm 4 mps 742 mmHg 92%

    Day after tomorrow, 18 July, Wednesday

    Time Temperature Precipitation Wind Pressure Humidity
    00:00 +16°C° 0 mm 5 mps 741 mmHg 92%
    01:00 +16°C° 0 mm 5 mps 741 mmHg 92%
    02:00 +16°C° 0.1 mm 5 mps 741 mmHg 92%
    03:00 +16°C° 0.1 mm 5 mps 741 mmHg 92%
    04:00 +16°C° 0.1 mm 5 mps 742 mmHg 92%
    05:00 +17°C° 0.2 mm 6 mps 742 mmHg 90%
    06:00 +17°C° 0.2 mm 6 mps 742 mmHg 88%
    07:00 +17°C° 0.2 mm 6 mps 742 mmHg 87%
    08:00 +19°C° 0.6 mm 6 mps 742 mmHg 82%
    09:00 +20°C° 0.6 mm 6 mps 742 mmHg 78%
    10:00 +21°C° 0.6 mm 6 mps 742 mmHg 74%
    11:00 +21°C° 0.8 mm 6 mps 742 mmHg 73%
    12:00 +22°C° 0.8 mm 6 mps 742 mmHg 73%
    13:00 +22°C° 0.8 mm 5 mps 742 mmHg 72%
    14:00 +22°C° 0.6 mm 5 mps 742 mmHg 72%
    15:00 +22°C° 0.6 mm 4 mps 742 mmHg 73%
    16:00 +22°C° 0.6 mm 4 mps 743 mmHg 73%
    17:00 +22°C° 0.3 mm 4 mps 743 mmHg 76%
    18:00 +21°C° 0.3 mm 4 mps 743 mmHg 79%
    19:00 +20°C° 0.3 mm 3 mps 743 mmHg 82%
    20:00 +20°C° 0.1 mm 3 mps 743 mmHg 84%
    21:00 +19°C° 0.1 mm 3 mps 743 mmHg 86%
    22:00 +19°C° 0.1 mm 3 mps 744 mmHg 88%
    23:00 +18°C° 0.1 mm 3 mps 744 mmHg 89%

    19 July, Thursday

    Time Temperature Precipitation Wind Pressure Humidity
    00:00 +18°C° 0.1 mm 3 mps 744 mmHg 90%
    01:00 +18°C° 0.1 mm 4 mps 744 mmHg 91%
    02:00 +18°C° 0.2 mm 4 mps 744 mmHg 92%
    03:00 +17°C° 0.2 mm 4 mps 744 mmHg 92%
    04:00 +17°C° 0.2 mm 4 mps 744 mmHg 92%
    05:00 +17°C° 0.3 mm 5 mps 744 mmHg 91%
    06:00 +17°C° 0.3 mm 5 mps 744 mmHg 89%
    07:00 +17°C° 0.3 mm 5 mps 744 mmHg 87%
    08:00 +19°C° 0.5 mm 5 mps 744 mmHg 84%
    09:00 +20°C° 0.5 mm 5 mps 744 mmHg 82%
    10:00 +20°C° 0.5 mm 5 mps 745 mmHg 79%
    11:00 +21°C° 0.5 mm 5 mps 745 mmHg 75%
    12:00 +22°C° 0.5 mm 5 mps 745 mmHg 72%
    13:00 +23°C° 0.5 mm 4 mps 745 mmHg 69%
    14:00 +23°C° 0.1 mm 4 mps 745 mmHg 67%
    15:00 +25°C° 0.1 mm 4 mps 745 mmHg 65%
    16:00 +25°C° 0.1 mm 4 mps 745 mmHg 63%
    17:00 +24°C° 0 mm 3 mps 745 mmHg 68%
    18:00 +22°C° 0 mm 3 mps 745 mmHg 72%
    19:00 +21°C° 0 mm 2 mps 745 mmHg 77%
    20:00 +20°C° 0 mm 2 mps 745 mmHg 80%
    21:00 +19°C° 0 mm 2 mps 745 mmHg 84%
    22:00 +18°C° 0 mm 2 mps 745 mmHg 87%
    23:00 +17°C° 0 mm 2 mps 745 mmHg 87%

    20 July, Friday

    Time Temperature Precipitation Wind Pressure Humidity
    00:00 +17°C° 0 mm 2 mps 745 mmHg 87%
    01:00 +16°C° 0 mm 2 mps 745 mmHg 87%
    02:00 +16°C° 0 mm 2 mps 745 mmHg 87%
    03:00 +15°C° 0 mm 2 mps 745 mmHg 87%
    04:00 +15°C° 0 mm 2 mps 745 mmHg 87%
    05:00 +16°C° 0 mm 2 mps 745 mmHg 81%
    06:00 +17°C° 0 mm 3 mps 745 mmHg 76%
    07:00 +18°C° 0 mm 3 mps 745 mmHg 70%
    08:00 +20°C° 0 mm 3 mps 745 mmHg 63%
    09:00 +22°C° 0 mm 3 mps 745 mmHg 55%
    10:00 +24°C° 0 mm 3 mps 745 mmHg 48%
    11:00 +25°C° 0 mm 3 mps 745 mmHg 45%
    12:00 +26°C° 0 mm 3 mps 744 mmHg 42%
    13:00 +27°C° 0 mm 2 mps 744 mmHg 39%
    14:00 +27°C° 0 mm 2 mps 744 mmHg 38%
    15:00 +27°C° 0 mm 2 mps 744 mmHg 38%
    16:00 +27°C° 0 mm 2 mps 743 mmHg 38%
    17:00 +26°C° 0 mm 2 mps 743 mmHg 44%
    18:00 +25°C° 0 mm 1 mps 743 mmHg 50%
    19:00 +23°C° 0 mm 1 mps 743 mmHg 57%
    20:00 +22°C° 0 mm 1 mps 743 mmHg 60%
    21:00 +20°C° 0 mm 1 mps 743 mmHg 63%
    22:00 +19°C° 0 mm 1 mps 743 mmHg 66%
    23:00 +18°C° 0 mm 1 mps 743 mmHg 68%

    21 July, Saturday

    Time Temperature Precipitation Wind Pressure Humidity
    00:00 +18°C° 0 mm 1 mps 743 mmHg 70%
    01:00 +16°C° 0 mm 1 mps 743 mmHg 72%
    02:00 +16°C° 0 mm 1 mps 743 mmHg 73%
    03:00 +16°C° 0 mm 1 mps 743 mmHg 74%
    04:00 +15°C° 0 mm 1 mps 743 mmHg 74%
    05:00 +18°C° 0 mm 1 mps 743 mmHg 70%
    06:00 +20°C° 0 mm 1 mps 743 mmHg 66%
    07:00 +20°C° 0 mm 0 mps 743 mmHg 61%
    08:00 +23°C° 0 mm 1 mps 743 mmHg 57%
    09:00 +24°C° 0 mm 1 mps 743 mmHg 54%
    10:00 +26°C° 0 mm 1 mps 743 mmHg 50%
    11:00 +26°C° 0 mm 1 mps 743 mmHg 48%
    12:00 +27°C° 0 mm 1 mps 742 mmHg 47%
    13:00 +27°C° 0 mm 1 mps 742 mmHg 45%
    14:00 +27°C° 0 mm 1 mps 742 mmHg 46%
    15:00 +27°C° 0 mm 1 mps 742 mmHg 47%
    16:00 +27°C° 0 mm 1 mps 741 mmHg 47%
    17:00 +26°C° 0 mm 1 mps 741 mmHg 53%
    18:00 +25°C° 0 mm 2 mps 741 mmHg 59%
    19:00 +24°C° 0 mm 2 mps 742 mmHg 65%
    20:00 +22°C° 0 mm 1 mps 742 mmHg 68%
    21:00 +21°C° 0 mm 1 mps 742 mmHg 72%
    22:00 +20°C° 0 mm 1 mps 742 mmHg 75%
    23:00 +19°C° 0 mm 1 mps 742 mmHg 77%
    Show more